sat.trackr.live / text

‹ back to catalog

STARLINK-3914

NORAD 52490 · 2022-049AR

PAYLOAD ACTIVE UNKNOWN

§ Identity

Operator
Country
US
Launch date
2022-05-06
Launch site
AFETR
Launch vehicle
Mass (kg)
RCS (m²)

Purposes: comms

External: N2YO · Heavens-Above · Gunter

§ Orbital elements

Epoch: 2026-09-19T11:15:26.576640Z

Period
94.01 min
Inclination
53.1593°
Eccentricity
0.0001309
Mean motion
15.31706057 rev/d
Perigee alt
469.8 km
Apogee alt
471.6 km
Semi-major
6,848.9 km
B*
3.9769e-5
RAAN
254.5821°
Arg perigee
72.8664°
Mean anomaly
287.2481°
Rev number
24,170

§ Raw data

STARLINK-39141 52490U 22049AR  26262.46905760  .00000869  00000+0  39769-4 0  99922 52490  53.1593 254.5821 0001309  72.8664 287.2481 15.31706057241702

JSON: /api/v1/satellites/52490 · /tle

For live sub-satellite position, see the globe view (requires WebGL).

§ Visibility from observer

Set your observer location to see the next 7 days of passes ≥ 10°. The values pass through the URL so the page stays shareable.

No JS? Fill the form by hand. The geolocation button needs JavaScript.